Location: Banksville Park
(38.5557°N, 75.1182°W)
Time: 03:42:37
(UTC+00:00)

Envisat - Pass Details

Date: 04 December 2020
Orbit: 764 x 766 km, 98.1° (Epoch: 16 January)

Event Time Altitude Azimuth Distance (km) Brightness Sun altitude
Rises 10:09:31 0° 23° (NNE) 3,239 6.4 -21.5°
Reaches altitude 10° 10:12:04 10° 33° (NNE) 2,308 5.7 -21.0°
Maximum altitude 10:16:36 32° 96° (E) 1,293 4.8 -20.1°
Drops below altitude 10° 10:21:06 10° 159° (SSE) 2,293 5.9 -19.3°
Sets 10:23:37 0° 169° (S) 3,214 6.6 -18.8°
